Regional Weather Roundup
Issued by NWS Burlington, VT

Current Version | Previous Version | Text Only | Print | Product List | Glossary On
Versions: 1 2 3 4 5 6 7 8 9 10 11 12 13 14 15 16 17 18 19 20 21 22 23 24 25 26 27 28 29 30 31 32 33 34 35 36 37 38 39 40 41 42 43 44 45 46 47 48 49 50
253
ASUS41 KBTV 301930
RWRBTV
VERMONT REGIONAL WEATHER ROUNDUP
NATIONAL WEATHER SERVICE BURLINGTON VT
300 PM EDT MON MAY 30 2016

NOTE: "FAIR" INDICATES FEW OR NO CLOUDS BELOW 12,000 FEET WITH NO
SIGNIFICANT WEATHER AND/OR OBSTRUCTIONS TO VISIBILITY.

* THESE REPORTS ARE NOT UNDER NWS QUALITY CONTROL AND/OR DO NOT
  REPORT WEATHER SUCH AS PRECIPITATION AND FOG.

VTZ001>019-302000-
_____VERMONT_____


CITY           SKY/WX    TMP DP  RH WIND       PRES   REMARKS
BURLINGTON     FAIR      84  64  50 S17G23    29.79F
MONTPELIER     FAIR      81  59  47 S12G18    29.88F
MORRISVILLE    FAIR      82  60  47 S13       29.82F
ST. JOHNSBURY*   N/A     82  62  50 MISG      29.81F
LYNDONVILLE*   FAIR      78  64  62 SE12      29.86F
RUTLAND*       FAIR      82  62  50 SW9G17    29.87F
SPRINGFIELD    FAIR      79  66  64 SE10      29.87F
HIGHGATE*      FAIR      83  67  57 S9        29.77F
NEWPORT*       PTSUNNY   79  62  56 S8        29.81F
BENNINGTON     FAIR      82  62  50 SW7       29.90F
SUTTON*          N/A     77 N/A N/A MISG        N/A
MT. MANSFIELD*   N/A     70 N/A N/A NW22        N/A

_____LAKE CHAMPLAIN_____


CITY           SKY/WX    TMP DP  RH WIND       PRES   REMARKS
BURTON ISLAND*   N/A     75  64  69 S12         N/A
COLCHESTER RF*   N/A     72  64  78 S20         N/A
DIAMOND ISL*     N/A     81  66  61 S21         N/A

$$

NYZ007-026>031-035-052-083-087-302000-
_____NORTHERN NEW YORK_____


CITY           SKY/WX    TMP DP  RH WIND       PRES   REMARKS
PLATTSBURGH    MOSUNNY   83  68  60 VRB6      29.77F
SARANAC LAKE   MOSUNNY   80  49  33 W17G25    29.86S
MASSENA        MOSUNNY   83  59  44 SW17G32   29.81S
OGDENSBURG*    SUNNY     81  61  50 SW15G26   29.83R
WATERTOWN      SUNNY     77  58  51 W14G28    29.89S
ALBANY         MOSUNNY   83  65  54 S9        29.88F
GLENS FALLS    MOSUNNY   83  66  56 S10G22    29.85F

$$
NHZ002-005-011-302000-
_____NEW HAMPSHIRE_____


CITY           SKY/WX    TMP DP  RH WIND       PRES   REMARKS
LEBANON        SUNNY     83  65  54 S8        29.85F
MT WASHINGTON  PTSUNNY   57  50  77 W24G33      N/A
PLYMOUTH       FAIR      80  65  59 SE5       29.86F
WHITEFIELD     SUNNY     82  60  47 W9        29.85F

$$

_____REGIONAL QUEBEC LOCATIONS_____


CITY           SKY/WX    TMP DP  RH WIND       PRES   REMARKS
MONTREAL       MOSUNNY   82  61  47 SW22G29   29.75S
QUEBEC CITY    PTSUNNY   81  68  65 SW14      29.68F
SHERBROOKE     SUNNY     82  63  51 SW15      29.78F

_____REGIONAL ONTARIO LOCATIONS_____


CITY           SKY/WX    TMP DP  RH WIND       PRES   REMARKS
OTTAWA         MOSUNNY   82  57  42 SW17G24   29.78F

______KEY______
VSB  - VISIBILITY IN MILES
WCI  - WIND CHILL INDEX
HX   - HEAT INDEX
$$
NNNN




USA.gov is the U.S. government's official web portal to all federal, state and local government web resources and services.